Find OneWeb SL0549

NORAD ID: 56051 Int'l Des: 2023-043 Owner: ONEWEBN Country: UK Constellation: oneweb operational
別名: ONEWEB-0549 spacetrack, celestrak
LEOCIRCULARPOLARONEWEB_TYPE

現在のビュー

3D地球を読み込み中...

About OneWeb SL0549

OneWeb SL0549 (NORAD 56051) is a oneweb constellation satellite launched Mar 26, 2023 by ONEWEBN of UK. It operates in LEO, CIRCULAR, POLAR, ONEWEB_TYPE orbit with a mass of 148.00 kg.

次回通過

Passes for default location (London). Set your location on the main map for personalized predictions.

高度履歴

Loading altitude history...

軌道要素

1 56051U 23043F 26263.16552630 .00000078 00000-0 15667-3 0 9999
2 56051 87.9280 225.0731 0001734 75.2185 284.9141 13.21827807170776
Epoch: Sep 20, 2026 • Age: 12 hours

現在のステータス

高度 1182.6 km
遠地点 / 近地点 N/A
速度 7.27 km/s
衛星直下点 38.39°N, 170°E
打ち上げ日 Mar 26, 2023
運用期間 3.4 years
タイプ internet

技術仕様

分類 Payload
質量 148.00 kg
乾燥質量 140.00 kg
長さ 1.30 m
直径 1.00 m
スパン 5.00 m
形状 ? Trapezoid+2 pan
製造者 ONEWUS
バスタイプ ARROW
フェーズステータス In Orbit
所有者/国 ONEWEBN/UK

Most Searched